Weather History for Monroe, MI

Change the Weather History Date:

Sunday, March 4, 2012

  Actual Average Record
Temperature  
Mean Temperature 32 °F -  
Max Temperature 37 °F 40 °F 66 °F (1974)
Min Temperature 28 °F 25 °F -5 °F (2014)
Degree Days  
Heating Degree Days 32    
Moisture  
Dew Point 24 °F    
Average Humidity 72    
Maximum Humidity 93    
Minimum Humidity 52    
Precipitation  
Precipitation 0.00 in - - ()
Sea Level Pressure  
Sea Level Pressure 29.77 in    
Wind  
Wind Speed 11 mph (WNW)    
Max Wind Speed 16 mph    
Max Gust Speed 22 mph    
Visibility 10 miles    
Events Snow    
Averages and records for this station are not official NWS values.
T = Trace of Precipitation, MM = Missing Value Source: NWS Daily Summary

Daily Weather History Graph

Daily Weather History Graph

Search for Another Location

Airport:

Trip Planner

Search our weather history database for the weather conditions in past years. The results will help you decide how hot, cold, wet, or windy it might be!

Date:

Astronomy

Mar. 04, 2012 Rise Set
Actual Time 7:03 AM EST 6:28 PM EST
Civil Twilight 6:35 AM EST 6:56 PM EST
Nautical Twilight 6:03 AM EST 7:28 PM EST
Astronomical Twilight 5:30 AM EST 8:00 PM EST
Moon 2:36 PM EST (3/4) 4:25 AM EST (3/4)
Length of Visible Light 12h 20m
Length of Day
11h 25m
Waxing Gibbous, 83% of the Moon is Illuminated
Mar 4
Waxing Gibbous
Mar 8
Full
Mar 14
Last Quarter
Mar 22
New
Mar 30
First Quarter

Hourly Weather History & Observations

Time (EST) Temp. Windchill Dew Point Humidity Pressure Visibility Wind Dir Wind Speed Gust Speed Precip Events Conditions
12:14 AM 32.0 °F 23.0 °F 24.8 °F 75% 29.73 in 10.0 mi WSW 11.5 mph - N/A   Overcast
12:35 AM 32.0 °F 22.1 °F 24.8 °F 75% 29.73 in 10.0 mi West 13.8 mph 21.9 mph N/A   Overcast
12:55 AM 32.0 °F 22.1 °F 24.8 °F 75% 29.73 in 10.0 mi WSW 13.8 mph 18.4 mph N/A   Overcast
1:15 AM 32.0 °F 23.0 °F 24.8 °F 75% 29.73 in 10.0 mi West 11.5 mph - N/A   Overcast
1:35 AM 30.2 °F 19.3 °F 24.8 °F 80% 29.73 in 10.0 mi West 15.0 mph 19.6 mph N/A   Overcast
1:55 AM 30.2 °F 20.8 °F 24.8 °F 80% 29.73 in 10.0 mi West 11.5 mph - N/A   Overcast
2:10 AM 30.2 °F 20.2 °F 24.8 °F 80% 29.73 in 10.0 mi West 12.7 mph - N/A   Overcast
2:30 AM 30.2 °F 21.9 °F 24.8 °F 80% 29.73 in 10.0 mi West 9.2 mph 16.1 mph N/A   Overcast
2:51 AM 30.2 °F 20.2 °F 26.6 °F 86% 29.73 in 10.0 mi West 12.7 mph - N/A   Overcast
3:11 AM 30.2 °F 20.8 °F 26.6 °F 86% 29.73 in 10.0 mi WSW 11.5 mph - N/A   Overcast
3:31 AM 30.2 °F 21.3 °F 26.6 °F 86% 29.73 in 4.0 mi WSW 10.4 mph - N/A Snow Light Snow
3:51 AM 30.2 °F 21.3 °F 26.6 °F 86% 29.73 in 7.0 mi NW 10.4 mph - N/A Snow Light Snow
4:11 AM 28.4 °F 19.1 °F 24.8 °F 86% 29.73 in 10.0 mi NW 10.4 mph - N/A   Overcast
4:31 AM 28.4 °F 20.4 °F 24.8 °F 86% 29.74 in 7.0 mi NW 8.1 mph - N/A Snow Light Snow
4:51 AM 28.4 °F 22.2 °F 24.8 °F 86% 29.74 in 2.5 mi WNW 5.8 mph - N/A Snow Light Snow
5:11 AM 28.4 °F 21.2 °F 26.6 °F 93% 29.74 in 7.0 mi West 6.9 mph - N/A Snow Light Snow
5:32 AM 28.4 °F 23.3 °F 26.6 °F 93% 29.74 in 3.0 mi West 4.6 mph - N/A Snow Light Snow
5:52 AM 28.4 °F 22.2 °F 26.6 °F 93% 29.74 in 10.0 mi West 5.8 mph - N/A Snow Light Snow
6:12 AM 28.4 °F 24.6 °F 26.6 °F 93% 29.75 in 10.0 mi West 3.5 mph - N/A Snow Light Snow
6:32 AM 28.4 °F 23.3 °F 26.6 °F 93% 29.75 in 10.0 mi West 4.6 mph - N/A   Overcast
6:52 AM 28.4 °F 22.2 °F 26.6 °F 93% 29.75 in 10.0 mi WNW 5.8 mph - N/A   Overcast
7:12 AM 28.4 °F 22.2 °F 26.6 °F 93% 29.76 in 10.0 mi WNW 5.8 mph - N/A   Overcast
7:32 AM 28.4 °F 20.4 °F 26.6 °F 93% 29.76 in 10.0 mi WNW 8.1 mph - N/A   Overcast
7:52 AM 28.4 °F 20.4 °F 24.8 °F 86% 29.77 in 10.0 mi WNW 8.1 mph - N/A   Overcast
8:13 AM 30.2 °F 23.4 °F 23.0 °F 75% 29.77 in 10.0 mi WNW 6.9 mph - N/A   Overcast
8:33 AM 30.2 °F 22.6 °F 23.0 °F 75% 29.77 in 10.0 mi NW 8.1 mph - N/A   Overcast
8:53 AM 30.2 °F 21.9 °F 23.0 °F 75% 29.78 in 10.0 mi West 9.2 mph - N/A   Overcast
9:13 AM 30.2 °F 22.6 °F 24.8 °F 80% 29.78 in 10.0 mi WNW 8.1 mph - N/A   Overcast
9:33 AM 32.0 °F 23.6 °F 24.8 °F 75% 29.78 in 10.0 mi WNW 10.4 mph - N/A   Overcast
9:53 AM 30.2 °F 21.9 °F 23.0 °F 75% 29.79 in 10.0 mi West 9.2 mph - N/A   Overcast
10:13 AM 32.0 °F 23.6 °F 23.0 °F 69% 29.79 in 10.0 mi WNW 10.4 mph - N/A   Overcast
10:34 AM 33.8 °F 25.8 °F 23.0 °F 65% 29.79 in 10.0 mi WNW 10.4 mph - N/A   Mostly Cloudy
10:54 AM 33.8 °F 25.3 °F 23.0 °F 65% 29.79 in 10.0 mi WNW 11.5 mph 17.3 mph N/A   Mostly Cloudy
11:34 AM 33.8 °F 24.8 °F 21.2 °F 60% 29.79 in 10.0 mi West 12.7 mph - N/A   Overcast
11:54 AM 35.6 °F 27.1 °F 21.2 °F 56% 29.80 in 10.0 mi WNW 12.7 mph - N/A   Overcast
12:15 PM 33.8 °F 25.3 °F 21.2 °F 60% 29.79 in 10.0 mi WNW 11.5 mph - N/A   Overcast
12:35 PM 35.6 °F 27.1 °F 23.0 °F 60% 29.79 in 10.0 mi West 12.7 mph - N/A   Overcast
12:55 PM 35.6 °F 26.6 °F 23.0 °F 60% 29.79 in 10.0 mi West 13.8 mph - N/A   Overcast
1:15 PM 35.6 °F 26.2 °F 23.0 °F 60% 29.79 in 10.0 mi West 15.0 mph - N/A   Mostly Cloudy
1:35 PM 35.6 °F 26.2 °F 23.0 °F 60% 29.78 in 10.0 mi West 15.0 mph - N/A   Overcast
1:50 PM 35.6 °F 27.5 °F 23.0 °F 60% 29.78 in 10.0 mi WNW 11.5 mph - N/A   Overcast
2:11 PM 37.4 °F 29.8 °F 23.0 °F 56% 29.78 in 10.0 mi West 11.5 mph - N/A   Overcast
2:31 PM 35.6 °F 25.9 °F 21.2 °F 56% 29.78 in 10.0 mi WNW 16.1 mph 21.9 mph N/A   Overcast
2:51 PM 37.4 °F 30.8 °F 21.2 °F 52% 29.78 in 10.0 mi WNW 9.2 mph - N/A   Overcast
3:11 PM 37.4 °F 29.3 °F 21.2 °F 52% 29.78 in 10.0 mi WNW 12.7 mph - N/A   Mostly Cloudy
3:31 PM 37.4 °F 28.2 °F 21.2 °F 52% 29.78 in 10.0 mi West 16.1 mph 20.7 mph N/A   Overcast
3:51 PM 37.4 °F 29.8 °F 21.2 °F 52% 29.78 in 10.0 mi WNW 11.5 mph - N/A   Overcast
4:11 PM 37.4 °F 30.3 °F 23.0 °F 56% 29.78 in 10.0 mi WNW 10.4 mph - N/A   Overcast
4:31 PM 35.6 °F 28.6 °F 23.0 °F 60% 29.79 in 10.0 mi WNW 9.2 mph - N/A   Overcast
4:52 PM 35.6 °F 28.0 °F 23.0 °F 60% 29.79 in 10.0 mi NW 10.4 mph - N/A   Overcast
5:12 PM 35.6 °F 28.6 °F 23.0 °F 60% 29.80 in 10.0 mi NW 9.2 mph - N/A   Overcast
5:32 PM 35.6 °F 28.6 °F 21.2 °F 56% 29.80 in 10.0 mi NNW 9.2 mph - N/A   Mostly Cloudy
5:52 PM 35.6 °F 28.6 °F 21.2 °F 56% 29.80 in 10.0 mi NW 9.2 mph - N/A   Mostly Cloudy
6:12 PM 33.8 °F 27.0 °F 21.2 °F 60% 29.81 in 10.0 mi NW 8.1 mph - N/A   Scattered Clouds
6:32 PM 33.8 °F 29.6 °F 21.2 °F 60% 29.82 in 10.0 mi NW 4.6 mph - N/A   Mostly Cloudy
6:52 PM 33.8 °F 28.6 °F 21.2 °F 60% 29.82 in 10.0 mi WNW 5.8 mph - N/A   Overcast
7:12 PM 33.8 °F 30.8 °F 21.2 °F 60% 29.83 in 10.0 mi NW 3.5 mph - N/A   Overcast
7:33 PM 33.8 °F - 21.2 °F 60% 29.83 in 10.0 mi Calm Calm - N/A   Overcast
7:53 PM 33.8 °F - 23.0 °F 65% 29.84 in 10.0 mi Calm Calm - N/A   Overcast
8:13 PM 33.8 °F - 23.0 °F 65% 29.84 in 10.0 mi Calm Calm - N/A   Overcast
8:33 PM 33.8 °F 29.6 °F 23.0 °F 65% 29.85 in 7.0 mi North 4.6 mph - N/A   Overcast
8:53 PM 32.0 °F 28.7 °F 23.0 °F 69% 29.85 in 10.0 mi North 3.5 mph - N/A   Overcast
9:13 PM 32.0 °F 28.7 °F 24.8 °F 75% 29.86 in 10.0 mi NNE 3.5 mph - N/A   Overcast
9:33 PM 30.2 °F 24.3 °F 24.8 °F 80% 29.86 in 10.0 mi North 5.8 mph - N/A   Overcast
9:54 PM 30.2 °F 25.4 °F 24.8 °F 80% 29.87 in 10.0 mi North 4.6 mph - N/A   Overcast
10:14 PM 30.2 °F - 24.8 °F 80% 29.87 in 7.0 mi Calm Calm - N/A Snow Light Snow
10:54 PM 30.2 °F 25.4 °F 28.4 °F 93% 29.87 in 3.0 mi North 4.6 mph - N/A Snow Light Snow
11:14 PM 28.4 °F 23.3 °F 28.4 °F 100% 29.88 in 3.0 mi NE 4.6 mph - N/A Snow Light Snow
11:34 PM 28.4 °F 21.2 °F 28.4 °F 100% 29.88 in 1.5 mi ENE 6.9 mph - N/A Snow Light Snow